Date,TemperatureHighF,TemperatureAvgF,TemperatureLowF,DewpointHighF,DewpointAvgF,DewpointLowF,HumidityHigh,HumidityAvg,HumidityLow,PressureMaxIn,PressureMinIn,WindSpeedMaxMPH,WindSpeedAvgMPH,GustSpeedMaxMPH,PrecipitationSumIn
2013-5-1,71,57,44,49,45,36,85,65,41,30.32,29.93,16,5,23,0.00
2013-5-2,44,38,33,37,34,30,93,84,74,30.38,30.31,12,6,21,0.02
2013-5-3,43,37,32,43,36,30,99,95,88,30.31,30.08,9,3,15,0.72
2013-5-4,71,56,43,56,48,43,100,78,50,30.10,30.03,11,1,16,0.06
2013-5-5,75,61,46,51,47,41,96,65,32,30.10,30.02,9,0,17,0.00
2013-5-6,78,62,46,51,45,40,96,59,28,30.11,30.01,7,0,8,0.00
2013-5-7,80,65,47,49,42,32,91,49,20,30.07,29.99,11,1,16,0.00
2013-5-8,81,68,49,53,46,40,85,50,26,30.02,29.93,12,1,18,0.00
2013-5-9,66,58,48,57,54,47,97,85,60,29.95,29.88,14,1,23,0.84
2013-5-10,58,49,42,47,44,40,96,84,65,30.02,29.92,12,2,22,0.19
2013-5-11,51,48,42,48,36,25,94,66,38,30.07,29.79,21,7,31,0.00
2013-5-12,54,44,36,30,25,20,73,49,28,30.14,30.07,13,4,21,0.00
2013-5-13,64,50,31,38,30,24,86,50,26,30.17,29.82,13,2,21,0.00
2013-5-14,88,74,58,60,50,38,67,46,26,29.82,29.48,25,6,31,0.00
2013-5-15,76,70,60,58,45,39,66,43,29,29.84,29.53,13,2,25,0.00
2013-5-16,86,68,51,53,48,40,85,51,26,29.97,29.83,12,1,20,0.00
2013-5-17,62,55,48,54,46,34,98,75,38,30.08,29.96,9,2,18,0.70
2013-5-18,79,65,50,65,57,48,94,76,59,30.06,29.89,8,1,17,0.00
2013-5-19,85,73,60,66,62,57,95,71,43,29.89,29.61,19,3,28,0.00
2013-5-20,80,71,61,64,61,58,98,74,51,29.78,29.56,20,5,30,0.59
2013-5-21,73,67,60,64,59,56,97,78,60,29.68,29.54,16,3,23,0.07
2013-5-22,65,60,52,60,58,51,98,93,82,29.83,29.61,7,1,13,1.10
2013-5-23,64,54,45,52,42,32,97,68,32,30.32,29.83,11,2,20,0.19
2013-5-24,67,53,39,45,37,32,88,57,31,30.45,30.29,8,1,11,0.00
2013-5-25,62,55,50,45,42,36,82,63,42,30.36,30.27,8,1,13,0.00
2013-5-26,65,55,46,53,44,37,87,68,39,30.30,30.14,8,1,20,0.06
2013-5-27,56,54,51,54,49,41,98,84,62,30.14,29.87,10,2,17,0.31
2013-5-28,63,56,50,60,55,50,100,96,86,29.88,29.71,6,0,12,0.13
2013-5-29,84,69,60,68,63,59,100,83,52,29.85,29.76,18,1,25,0.49
2013-5-30,80,70,63,71,66,60,100,88,66,29.83,29.64,19,4,29,0.57
2013-5-31,79,71,64,64,62,58,89,72,50,29.71,29.63,20,6,30,0.00